[[{"header":{"parameterUnit":"m.s-1","parameterCategory":1,"la1":30.2991,"la2":30.254,"lo1":-89.0895,"lo2":-89.0444,"dy":0.0017,"dx":0.0017,"nx":28,"ny":28,"refTime":"2023-09-09T03:00:00:Z","depth":0,"parameterNumber":2,"parameterNumberName":"U-component_of_WINDS"},"data":[0,0,0,0,0,0,0,0,0,0,0,0,0,0,0,0,0,0,0,0,0,0,0,0,0,0,0,0,0,0,0,0,0,0,0,0,0,0,0,0,0,0,0,0,0,0,0,0,0,0,0,0,0,0,0,0,0,0,-0.9391,-0.9391,0,-0.941,-0.941,-0.9411,-0.9343,-0.9341,-0.9339,-0.9337,-0.9359,-0.9362,-0.9364,0,0,0,0,0,0,0,0,0,0,0,0,0,-0.9296,-0.9298,-0.9391,-0.9391,-0.9391,-0.941,-0.941,-0.9411,-0.9343,-0.9341,-0.9339,-0.9336,-0.9358,-0.9361,-0.9364,0,0,0,0,0,0,0,0,0,0,0,0,0,-0.9328,-0.9299,-0.9391,-0.936,-0.9357,-0.941,-0.941,-0.9411,-0.9344,-0.9341,-0.9338,-0.9335,-0.9357,-0.9361,-0.9365,-0.9449,0,0,-0.9376,-0.9378,0,0,0,0,0,0,0,0,-0.9327,-0.9332,-0.9364,-0.9362,-0.9359,-0.9371,-0.9385,-0.9424,-0.9345,-0.9349,-0.9337,-0.9334,-0.9366,-0.9369,-0.9379,-0.945,-0.9451,-0.9376,-0.9379,-0.938,-0.9381,0,0,0,0,0,0,0,-0.9325,-0.9331,-0.9398,-0.9365,-0.9362,-0.9345,-0.9347,-0.9392,-0.9374,-0.9348,-0.9344,-0.9347,-0.9364,-0.9376,-0.9379,-0.9451,-0.9376,-0.938,-0.9382,-0.9383,-0.9592,-0.9595,0,0,0,0,0,0,-0.9326,-0.9329,-0.9398,-0.9399,-0.9335,-0.9349,-0.9351,-0.937,-0.9374,-0.9371,-0.9349,-0.9344,-0.9371,-0.9375,-0.938,-0.9479,-0.938,-0.9384,-0.9386,-0.9589,-0.9592,-0.9596,0,0,0,0,0,0,-0.9324,-0.9333,-0.9397,-0.9363,-0.937,-0.9354,-0.9377,-0.9372,-0.9384,-0.9374,-0.9371,-0.9365,-0.9369,-0.9374,-0.9432,-0.9479,-0.9385,-0.9389,-0.9585,-0.959,-0.9594,-0.9678,0,0,0,0,0,0,-0.9322,-0.9333,-0.9364,-0.9364,-0.9372,-0.9449,-0.938,-0.9375,-0.9391,-0.9383,-0.9388,-0.9386,-0.9367,-0.9427,-0.9436,-0.9482,-0.9392,-0.958,-0.9587,-0.9593,-0.9671,-0.9685,-0.9697,0,0,0,0,0,-0.9319,-0.9388,-0.9366,-0.9375,-0.9411,-0.9452,-0.9457,-0.9433,-0.9395,-0.9427,-0.942,-0.9386,-0.9472,-0.9433,-0.9443,-0.9491,-0.9577,-0.9585,-0.9592,-0.9665,-0.9682,-0.9697,0,0,0,0,0,0,-0.9395,-0.9387,-0.9364,-0.9434,-0.9444,-0.9441,-0.948,-0.9452,-0.9473,-0.9466,-0.9435,-0.9437,-0.95,-0.9501,-0.9458,-0.9572,-0.9518,-0.9528,-0.957,-0.9587,-0.9599,-0.9599,-0.9395,0,0,0,0,0,-0.942,-0.9453,-0.9445,-0.9508,-0.9514,-0.9496,-0.9513,-0.9494,-0.9503,-0.9507,-0.9505,-0.9516,-0.9545,-0.9565,-0.9592,-0.967,-0.967,-0.9708,-0.9721,-0.9731,-0.9741,-0.9783,-0.9799,-0.962,-0.962,-0.962,0,0,-0.9472,-0.9472,-0.9495,-0.9523,-0.9529,-0.9565,-0.9501,-0.9541,-0.9568,-0.9514,-0.9568,-0.9567,-0.9577,-0.9645,-0.9675,-0.9648,-0.979,-0.9741,-0.975,-0.9753,-0.9792,-0.9809,-0.9824,-0.9625,-0.9625,-0.9624,0,0,-0.9586,-0.9589,-0.9642,-0.9648,-0.9657,-0.9644,-0.9657,-0.9657,-0.9654,-0.9708,-0.9668,-0.9699,-0.975,-0.9759,-0.977,-0.9885,-0.9855,-0.9895,-0.9964,-1.0005,-1.0019,-1.0032,-1.0074,-1.0089,-0.9904,-0.9904,-0.9904,0,-0.9651,-0.9703,-0.9673,-0.9717,-0.973,-0.9681,-0.9735,-0.9743,-0.976,-0.9771,-0.9739,-0.9802,-0.9805,-0.9875,-0.9903,-0.9913,-0.9928,-0.9895,-1.0019,-1.0032,-1.0043,-1.0083,-1.0099,-0.9909,-0.9908,-0.9908,-0.9907,0,-0.9782,-0.9818,-0.986,-0.9877,-0.9895,-0.9944,-0.9922,-0.9944,-0.9922,-0.9913,-0.9968,-0.997,-0.9996,-1.001,-0.999,-1.0077,-1.006,-1.0024,-0.997,-1.0065,-1.0102,-1.0117,-0.9916,-0.9914,-0.9913,-0.9911,0,0,-0.9947,-0.9946,-0.9962,-0.9969,-0.9974,-1.0002,-1.0047,-1.0072,-1.0092,-1.0104,-1.0143,-1.0186,-1.0153,-1.0166,-1.0145,-1.0181,-1.0273,-1.0141,-1.014,-1.0167,-1.0371,-1.0399,-1.0417,-1.0251,-1.0254,-1.0256,-1.037,0,-1.006,-1.0139,-1.0113,-1.0193,-1.0226,-1.0179,-1.0219,-1.0226,-1.0219,-1.0246,-1.0237,-1.0269,-1.0222,-1.0229,-1.0262,-1.0255,-1.0314,-1.0246,-1.0288,-1.029,-1.029,-1.0436,-1.0467,-1.0574,-1.0384,-1.0387,-1.0389,0,-1.0204,-1.0221,-1.0304,-1.0303,-1.0316,-1.0352,-1.0373,-1.0399,-1.0406,-1.0398,-1.0411,-1.0383,-1.0428,-1.0371,-1.0433,-1.0387,-1.0402,-1.0401,-1.0404,-1.041,-1.0347,-1.0447,-1.0608,-1.0625,-1.0411,-1.0409,-1.0407,0,-1.0318,-1.0362,-1.0418,-1.0425,-1.0424,-1.0451,-1.0452,-1.0456,-1.0472,-1.0489,-1.05,-1.0522,-1.0535,-1.0553,-1.0532,-1.0492,-1.0597,-1.0538,-1.0592,-1.0593,-1.0619,-1.0618,-1.0786,-1.0625,-1.0625,-1.0625,-1.0624,0,-1.0449,-1.0502,-1.0469,-1.0504,-1.0561,-1.053,-1.0589,-1.0584,-1.0588,-1.0621,-1.058,-1.0612,-1.0581,-1.061,-1.0593,-1.0647,-1.0653,-1.0648,-1.0643,-1.0653,-1.0654,-1.0664,-1.0657,-1.0629,-1.0628,-1.0627,-1.0627,0,-1.0588,-1.0568,-1.0625,-1.0619,-1.0618,-1.0662,-1.0656,-1.0688,-1.0676,-1.0718,-1.0726,-1.0708,-1.074,-1.0719,-1.0752,-1.074,-1.0812,-1.0795,-1.081,-1.0806,-1.0862,-1.0858,-1.1045,-1.1068,-1.089,-1.0892,-1.0893,0,-1.0674,-1.0713,-1.0711,-1.0729,-1.0733,-1.0764,-1.0779,-1.075,-1.0768,-1.0778,-1.0809,-1.0837,-1.0858,-1.0911,-1.0901,-1.0925,-1.0911,-1.0974,-1.0914,-1.0923,-1.0914,-1.0912,-1.0917,-1.0987,-1.0989,-1.0991,-1.0992,0,-1.0828,-1.0816,-1.084,-1.0861,-1.0881,-1.0896,-1.0908,-1.0926,-1.0896,-1.0918,-1.095,-1.0966,-1.0998,-1.1027,-1.1046,-1.1047,-1.1016,-1.1011,-1.1025,-1.1037,-1.1044,-1.1042,-1.0845,-1.1008,-1.1006,-1.1005,-1.1004,-1.1004,-1.0945,-1.0978,-1.0981,-1.1009,-1.1014,-1.1026,-1.1056,-1.1047,-1.1072,-1.1096,-1.1076,-1.1114,-1.1119,-1.1142,-1.1147,-1.1176,-1.1151,-1.1171,-1.1176,-1.1183,-1.1191,-1.1037,-1.118,-1.1179,-1.1179,-1.1178,-1.1178,0,-1.1099,-1.1098,-1.1124,-1.1142,-1.1164,-1.113,-1.114,-1.1162,-1.1195,-1.1202,-1.1223,-1.1259,-1.1286,-1.1278,-1.1302,-1.1327,-1.1313,-1.1334,-1.1333,-1.1334,-1.1212,-1.1198,-1.1345,-1.1345,-1.1345,-1.1345,-1.1345,-1.1345,-1.1182,-1.1236,-1.1224,-1.1281,-1.1279,-1.1316,-1.1325,-1.1335,-1.1341,-1.1383,-1.1405,-1.1398,-1.1399,-1.1422,-1.1445,-1.1442,-1.1454,-1.1481,-1.1473,-1.1359,-1.1343,-1.1327,-1.1314,-1.1483,-1.1483,-1.1593,-1.1594,-1.1595]},{"header":{"parameterUnit":"m.s-1","parameterCategory":1,"la1":30.2991,"la2":30.254,"lo1":-89.0895,"lo2":-89.0444,"dy":0.0017,"dx":0.0017,"nx":28,"ny":28,"refTime":"2023-09-09T03:00:00:Z","depth":0,"parameterNumber":3,"parameterNumberName":"V-component_of_WINDS"},"data":[0,0,0,0,0,0,0,0,0,0,0,0,0,0,0,0,0,0,0,0,0,0,0,0,0,0,0,0,0,0,0,0,0,0,0,0,0,0,0,0,0,0,0,0,0,0,0,0,0,0,0,0,0,0,0,0,0,0,-4.3446,-4.3447,0,-4.3549,-4.355,-4.3551,-4.3498,-4.3495,-4.3493,-4.349,-4.3591,-4.3596,-4.3601,0,0,0,0,0,0,0,0,0,0,0,0,0,-4.3198,-4.3203,-4.3445,-4.3447,-4.3448,-4.3548,-4.355,-4.3551,-4.3498,-4.3495,-4.3492,-4.3489,-4.3589,-4.3595,-4.3601,0,0,0,0,0,0,0,0,0,0,0,0,0,-4.3304,-4.3204,-4.3445,-4.3434,-4.3434,-4.3548,-4.355,-4.3551,-4.3499,-4.3495,-4.3491,-4.3487,-4.3587,-4.3595,-4.3602,-4.3732,0,0,-4.3626,-4.3629,0,0,0,0,0,0,0,0,-4.3298,-4.3313,-4.3434,-4.3435,-4.3435,-4.3506,-4.3499,-4.3612,-4.35,-4.3474,-4.349,-4.3485,-4.3566,-4.3575,-4.3603,-4.3737,-4.3741,-4.3627,-4.3632,-4.3635,-4.3637,0,0,0,0,0,0,0,-4.329,-4.3308,-4.3486,-4.3436,-4.3437,-4.3422,-4.3433,-4.352,-4.3541,-4.3476,-4.3473,-4.3486,-4.3565,-4.3596,-4.3605,-4.3742,-4.3627,-4.3634,-4.3638,-4.3641,-4.3986,-4.3991,0,0,0,0,0,0,-4.3284,-4.3302,-4.3483,-4.3489,-4.3355,-4.343,-4.3442,-4.3487,-4.354,-4.3544,-4.3489,-4.3483,-4.3584,-4.3596,-4.3608,-4.3763,-4.3635,-4.3642,-4.3647,-4.3982,-4.3987,-4.3992,0,0,0,0,0,0,-4.3279,-4.3301,-4.3479,-4.3395,-4.3416,-4.3438,-4.349,-4.3492,-4.3522,-4.355,-4.3553,-4.3517,-4.3581,-4.3597,-4.3702,-4.3766,-4.3646,-4.3653,-4.3977,-4.3984,-4.399,-4.4074,0,0,0,0,0,0,-4.3272,-4.33,-4.335,-4.3396,-4.3421,-4.3572,-4.3494,-4.3497,-4.3536,-4.3529,-4.3577,-4.3581,-4.358,-4.369,-4.3709,-4.3774,-4.3659,-4.3971,-4.398,-4.3988,-4.4066,-4.4083,-4.4098,0,0,0,0,0,-4.3264,-4.3369,-4.3353,-4.3375,-4.3485,-4.3576,-4.359,-4.3587,-4.3542,-4.3592,-4.361,-4.3579,-4.3756,-4.3701,-4.3723,-4.3791,-4.3967,-4.3977,-4.3987,-4.4059,-4.408,-4.4097,0,0,0,0,0,0,-4.3328,-4.3375,-4.3358,-4.3481,-4.3525,-4.3567,-4.363,-4.361,-4.3666,-4.3657,-4.365,-4.3661,-4.377,-4.3791,-4.3729,-4.3919,-4.3854,-4.3869,-4.3901,-4.3921,-4.3937,-4.393,-4.3665,0,0,0,0,0,-4.3357,-4.3429,-4.3465,-4.357,-4.3593,-4.3608,-4.3648,-4.3642,-4.3687,-4.3704,-4.373,-4.3773,-4.3838,-4.3881,-4.3942,-4.4068,-4.4077,-4.4126,-4.4142,-4.4155,-4.4167,-4.4235,-4.4257,-4.4025,-4.4025,-4.4025,0,0,-4.3417,-4.3451,-4.3496,-4.3584,-4.3617,-4.369,-4.3624,-4.3704,-4.3757,-4.3716,-4.3817,-4.3837,-4.3884,-4.4,-4.4052,-4.4021,-4.4233,-4.4168,-4.4178,-4.4183,-4.4248,-4.4269,-4.4289,-4.4032,-4.4031,-4.403,0,0,-4.3563,-4.3597,-4.3688,-4.3723,-4.3775,-4.3784,-4.3806,-4.3851,-4.3864,-4.3965,-4.3935,-4.3998,-4.411,-4.4145,-4.4177,-4.4337,-4.431,-4.4357,-4.444,-4.4506,-4.4524,-4.454,-4.4596,-4.4617,-4.4369,-4.4369,-4.437,0,-4.363,-4.374,-4.3737,-4.382,-4.3858,-4.3826,-4.3918,-4.3951,-4.402,-4.4047,-4.4011,-4.4151,-4.4181,-4.4304,-4.4343,-4.4371,-4.4394,-4.4351,-4.4522,-4.4538,-4.4553,-4.4607,-4.4628,-4.4375,-4.4374,-4.4374,-4.4373,0,-4.382,-4.3897,-4.3964,-4.4033,-4.4079,-4.4166,-4.4174,-4.4221,-4.4212,-4.4224,-4.4327,-4.4361,-4.4429,-4.4458,-4.4449,-4.458,-4.4559,-4.4523,-4.4458,-4.4581,-4.4631,-4.4651,-4.4382,-4.438,-4.4379,-4.4377,0,0,-4.401,-4.4076,-4.4101,-4.4132,-4.4187,-4.4245,-4.4329,-4.4397,-4.4437,-4.4485,-4.4555,-4.4651,-4.4618,-4.4655,-4.4649,-4.4707,-4.483,-4.4663,-4.4664,-4.4693,-4.4976,-4.5003,-4.5026,-4.4813,-4.4817,-4.482,-4.4972,0,-4.4159,-4.4309,-4.4309,-4.4446,-4.4516,-4.4486,-4.4559,-4.46,-4.4614,-4.4674,-4.4688,-4.4756,-4.4708,-4.473,-4.4786,-4.4803,-4.4887,-4.4792,-4.4876,-4.4879,-4.4866,-4.5053,-4.5081,-4.5223,-4.4991,-4.4995,-4.4997,0,-4.4354,-4.441,-4.4556,-4.46,-4.4629,-4.4695,-4.4757,-4.4815,-4.486,-4.4866,-4.4908,-4.4893,-4.4977,-4.491,-4.5025,-4.496,-4.4995,-4.5008,-4.5013,-4.5021,-4.4946,-4.5065,-4.5268,-4.5289,-4.5028,-4.5026,-4.5023,0,-4.4477,-4.4589,-4.469,-4.4718,-4.4772,-4.4819,-4.4844,-4.4885,-4.4925,-4.4979,-4.5005,-4.5066,-4.51,-4.5148,-4.5149,-4.51,-4.5265,-4.5198,-4.5271,-4.5271,-4.5307,-4.5305,-4.5518,-4.533,-4.533,-4.5329,-4.5329,0,-4.4644,-4.4734,-4.4747,-4.4809,-4.4908,-4.4906,-4.5003,-4.5023,-4.506,-4.5124,-4.5102,-4.5162,-4.5161,-4.5222,-4.5223,-4.5318,-4.5333,-4.5339,-4.5339,-4.5342,-4.5341,-4.5364,-4.5354,-4.5335,-4.5334,-4.5332,-4.5332,0,-4.4799,-4.4811,-4.4919,-4.4962,-4.4975,-4.5046,-4.5082,-4.514,-4.5152,-4.5234,-4.5253,-4.5271,-4.5341,-4.5348,-4.5429,-4.543,-4.5545,-4.5533,-4.553,-4.5528,-4.5601,-4.5594,-4.5836,-4.5868,-4.5659,-4.5661,-4.5663,0,-4.4905,-4.4973,-4.5024,-4.5066,-4.5094,-4.5162,-4.5204,-4.5204,-4.5248,-4.5304,-4.5355,-4.5424,-4.5479,-4.5593,-4.5612,-4.5674,-4.5664,-4.5745,-4.5673,-4.5674,-4.5665,-4.5661,-4.5667,-4.5758,-4.5761,-4.5763,-4.5764,0,-4.5091,-4.5094,-4.5155,-4.522,-4.5271,-4.5321,-4.5367,-4.5403,-4.5408,-4.5459,-4.5532,-4.5574,-4.5658,-4.5726,-4.5787,-4.581,-4.5788,-4.5787,-4.5807,-4.581,-4.5805,-4.5809,-4.5568,-4.5781,-4.5779,-4.5778,-4.5777,-4.5777,-4.5224,-4.5283,-4.5329,-4.5398,-4.5434,-4.5478,-4.5535,-4.5554,-4.5616,-4.5685,-4.5681,-4.5761,-4.5803,-4.5883,-4.5911,-4.5972,-4.5945,-4.5974,-4.5981,-4.5989,-4.5996,-4.5796,-4.5983,-4.5983,-4.5982,-4.5982,-4.5981,0,-4.5409,-4.5436,-4.55,-4.5567,-4.5622,-4.5598,-4.5648,-4.5695,-4.5766,-4.5808,-4.5863,-4.5946,-4.6012,-4.6037,-4.6101,-4.6145,-4.6137,-4.6162,-4.6158,-4.6164,-4.6017,-4.5993,-4.6168,-4.6168,-4.6168,-4.6168,-4.6168,-4.6168,-4.5511,-4.561,-4.5618,-4.5734,-4.5761,-4.5841,-4.5872,-4.5912,-4.5945,-4.604,-4.6095,-4.6111,-4.6146,-4.6212,-4.6271,-4.6276,-4.63,-4.633,-4.6331,-4.6193,-4.6174,-4.6156,-4.6134,-4.6336,-4.6336,-4.6473,-4.6475,-4.6475]}]]